Regional Weather Roundup
Issued by NWS

Home | Current Version | Previous Version | Graphics & Text | Print | Product List | Glossary On
Versions: 1 2 3 4 5 6 7 8 9 10 11 12 13 14 15 16 17 18 19 20 21 22 23 24 25 26 27 28 29 30 31 32 33 34 35 36 37 38 39 40 41 42 43 44 45 46 47 48 49 50
000
ASUS43 KBIS 221910
RWRND

NORTH DAKOTA REGIONAL WEATHER ROUNDUP
NATIONAL WEATHER SERVICE BISMARCK ND
200 PM CDT WED MAR 22 2017

NOTE: "FAIR" INDICATES FEW OR NO CLOUDS BELOW 12,000 FEET WITH NO
SIGNIFICANT WEATHER AND/OR OBSTRUCTIONS TO VISIBILITY.


NDZ001>003-009>011-017-222000-
NORTHWEST NORTH DAKOTA

CITY           SKY/WX    TMP DP  RH WIND       PRES   REMARKS
WILLISTON      CLOUDY    44  30  57 SE12      29.86F
MINOT          CLOUDY    36  26  67 SE21G30   29.95F
MINOT AFB      CLOUDY    35  27  73 S22       29.95F
$$

NDZ018>021-031>035-040>046-222000-
SOUTHWEST NORTH DAKOTA

CITY           SKY/WX    TMP DP  RH WIND       PRES   REMARKS
BISMARCK       CLOUDY    45  28  51 S23G33    29.99F
DICKINSON      FAIR      46  31  55 S21G30    29.82F
GARRISON         N/A     35  27  72 S20G25    29.94F
HETTINGER ARPT CLOUDY    49  34  56 S18G25    29.86F
$$

NDZ004>008-012>016-024-026-027-054-222000-
NORTHEAST NORTH DAKOTA

CITY           SKY/WX    TMP DP  RH WIND       PRES   REMARKS
GRAND FORKS    CLOUDY    31   7  36 S24       30.29F WCI  17
GRND FRKS AFB  FLURRIES  30  14  51 S23G32    30.27F WCI  17
DEVILS LAKE    CLOUDY    27  20  75 SE24G32   30.13F WCI  12
$$

NDZ022-023-025-028>030-036>039-047>053-222000-
SOUTHEAST NORTH DAKOTA

CITY           SKY/WX    TMP DP  RH WIND       PRES   REMARKS
FARGO          CLOUDY    31  13  47 S22G31    30.31F WCI  18
JAMESTOWN      CLOUDY    30  21  69 SE31G38   30.13F WCI  15
$$





USA.gov is the U.S. government's official web portal to all federal, state and local government web resources and services.